sat.trackr.live / text

‹ back to catalog

STARLINK-3528

NORAD 51714 · 2022-016A

PAYLOAD ACTIVE UNKNOWN

§ Identity

Operator
Country
US
Launch date
2022-02-21
Launch site
AFETR
Launch vehicle
Mass (kg)
RCS (m²)

Purposes: comms

External: N2YO · Heavens-Above · Gunter

§ Orbital elements

Epoch: 2026-05-24T23:40:33.687264Z

Period
95.44 min
Inclination
53.2142°
Eccentricity
0.0001780
Mean motion
15.08829387 rev/d
Perigee alt
538.5 km
Apogee alt
541.0 km
Semi-major
6,917.9 km
B*
7.6485e-5
RAAN
346.5856°
Arg perigee
119.3796°
Mean anomaly
240.7374°
Rev number
23,494

§ Raw data

STARLINK-35281 51714U 22016A   26144.98650101  .00000929  00000+0  76485-4 0  99992 51714  53.2142 346.5856 0001780 119.3796 240.7374 15.08829387234946

JSON: /api/v1/satellites/51714 · /tle

For live sub-satellite position, see the globe view (requires WebGL).

§ Visibility from observer

Set your observer location to see the next 7 days of passes ≥ 10°. The values pass through the URL so the page stays shareable.

No JS? Fill the form by hand. The geolocation button needs JavaScript.